Year,Month,Day,Hour,Minute,Value (Times are PST for temperature in C)
2010,01,23,00,00,4.90
2010,01,23,00,01,4.90
2010,01,23,00,02,5.10
2010,01,23,00,03,5.10
2010,01,23,00,04,5.10
2010,01,23,00,05,5.10
2010,01,23,00,06,5.10
2010,01,23,00,07,5.20
2010,01,23,00,08,5.20
2010,01,23,00,09,5.30
2010,01,23,00,10,5.20
2010,01,23,00,11,5.10
2010,01,23,00,12,5.10
2010,01,23,00,13,5.10
2010,01,23,00,14,5.10
2010,01,23,00,15,5.00
2010,01,23,00,16,4.90
2010,01,23,00,17,4.90
2010,01,23,00,18,4.90
2010,01,23,00,19,4.90
2010,01,23,00,20,4.90
2010,01,23,00,21,4.90
2010,01,23,00,22,4.90
2010,01,23,00,23,4.80
2010,01,23,00,24,4.80
2010,01,23,00,25,4.90
2010,01,23,00,26,4.90
2010,01,23,00,27,4.90
2010,01,23,00,28,5.00
2010,01,23,00,29,5.10
2010,01,23,00,30,5.10
2010,01,23,00,31,5.10
2010,01,23,00,32,5.10
2010,01,23,00,33,5.10
2010,01,23,00,34,5.10
2010,01,23,00,35,5.10
2010,01,23,00,36,5.10
2010,01,23,00,37,5.10
2010,01,23,00,38,5.10
2010,01,23,00,39,5.10
2010,01,23,00,40,5.10
2010,01,23,00,41,5.10
2010,01,23,00,42,5.20
2010,01,23,00,43,5.20
2010,01,23,00,44,5.20
2010,01,23,00,45,5.20
2010,01,23,00,46,5.20
2010,01,23,00,47,5.20
2010,01,23,00,48,5.20
2010,01,23,00,49,5.20
2010,01,23,00,50,5.20
2010,01,23,00,51,5.20
2010,01,23,00,52,5.20
2010,01,23,00,53,5.10
2010,01,23,00,54,5.10
2010,01,23,00,55,5.10
2010,01,23,00,56,5.10
2010,01,23,00,57,5.10
2010,01,23,00,58,5.10
2010,01,23,00,59,5.00
2010,01,23,01,00,4.90
2010,01,23,01,01,4.80
2010,01,23,01,02,4.70
2010,01,23,01,03,4.60
2010,01,23,01,04,4.50
2010,01,23,01,05,4.50
2010,01,23,01,06,4.40
2010,01,23,01,07,4.40
2010,01,23,01,08,4.30
2010,01,23,01,09,4.30
2010,01,23,01,10,4.30
2010,01,23,01,11,4.30
2010,01,23,01,12,4.30
2010,01,23,01,13,4.20
2010,01,23,01,14,4.20
2010,01,23,01,15,4.20
2010,01,23,01,16,4.20
2010,01,23,01,17,4.20
2010,01,23,01,18,4.20
2010,01,23,01,19,4.30
2010,01,23,01,20,4.40
2010,01,23,01,21,4.50
2010,01,23,01,22,4.50
2010,01,23,01,23,4.60
2010,01,23,01,24,4.60
2010,01,23,01,25,4.60
2010,01,23,01,26,4.70
2010,01,23,01,27,4.80
2010,01,23,01,28,4.90
2010,01,23,01,29,4.90
2010,01,23,01,30,4.90
2010,01,23,01,31,4.90
2010,01,23,01,32,4.90
2010,01,23,01,33,5.00
2010,01,23,01,34,5.10
2010,01,23,01,35,5.10
2010,01,23,01,36,5.00
2010,01,23,01,37,4.90
2010,01,23,01,38,4.90
2010,01,23,01,39,4.90
2010,01,23,01,40,4.90
2010,01,23,01,41,5.00
2010,01,23,01,42,5.10
2010,01,23,01,43,5.00
2010,01,23,01,44,4.90
2010,01,23,01,45,4.90
2010,01,23,01,46,4.90
2010,01,23,01,47,5.00
2010,01,23,01,48,5.10
2010,01,23,01,49,5.10
2010,01,23,01,50,5.10
2010,01,23,01,51,5.10
2010,01,23,01,52,5.20
2010,01,23,01,53,5.20
2010,01,23,01,54,5.20
2010,01,23,01,55,5.20
2010,01,23,01,56,5.20
2010,01,23,01,57,5.20
2010,01,23,01,58,5.10
2010,01,23,01,59,5.10
2010,01,23,02,00,5.10
2010,01,23,02,01,5.00
2010,01,23,02,02,4.90
2010,01,23,02,03,4.90
2010,01,23,02,04,4.90
2010,01,23,02,05,4.90
2010,01,23,02,06,4.90
2010,01,23,02,07,4.90
2010,01,23,02,08,4.90
2010,01,23,02,09,5.00
2010,01,23,02,10,5.10
2010,01,23,02,11,5.10
2010,01,23,02,12,5.10
2010,01,23,02,13,5.10
2010,01,23,02,14,5.10
2010,01,23,02,15,5.10
2010,01,23,02,16,5.10
2010,01,23,02,17,5.10
2010,01,23,02,18,5.10
2010,01,23,02,19,5.10
2010,01,23,02,20,5.10
2010,01,23,02,21,5.10
2010,01,23,02,22,5.10
2010,01,23,02,23,5.10
2010,01,23,02,24,5.10
2010,01,23,02,25,5.20
2010,01,23,02,26,5.20
2010,01,23,02,27,5.20
2010,01,23,02,28,5.20
2010,01,23,02,29,5.20
2010,01,23,02,30,5.10
2010,01,23,02,31,5.10
2010,01,23,02,32,5.10
2010,01,23,02,33,5.10
2010,01,23,02,34,5.20
2010,01,23,02,35,5.20
2010,01,23,02,36,5.20
2010,01,23,02,37,5.10
2010,01,23,02,38,5.10
2010,01,23,02,39,5.10
2010,01,23,02,40,5.10
2010,01,23,02,41,4.90
2010,01,23,02,42,4.90
2010,01,23,02,43,4.90
2010,01,23,02,44,4.90
2010,01,23,02,45,4.90
2010,01,23,02,46,5.00
2010,01,23,02,47,5.10
2010,01,23,02,48,5.10
2010,01,23,02,49,5.10
2010,01,23,02,50,5.10
2010,01,23,02,51,5.10
2010,01,23,02,52,5.10
2010,01,23,02,53,5.10
2010,01,23,02,54,5.10
2010,01,23,02,55,5.10
2010,01,23,02,56,5.10
2010,01,23,02,57,5.10
2010,01,23,02,58,5.20
2010,01,23,02,59,5.20
2010,01,23,03,00,5.30
2010,01,23,03,01,5.30
2010,01,23,03,02,5.30
2010,01,23,03,03,5.30
2010,01,23,03,04,5.30
2010,01,23,03,05,5.30
2010,01,23,03,06,5.30
2010,01,23,03,07,5.40
2010,01,23,03,08,5.40
2010,01,23,03,09,5.50
2010,01,23,03,10,5.60
2010,01,23,03,11,5.60
2010,01,23,03,12,5.70
2010,01,23,03,13,5.70
2010,01,23,03,14,5.80
2010,01,23,03,15,5.90
2010,01,23,03,16,5.90
2010,01,23,03,17,5.90
2010,01,23,03,18,5.90
2010,01,23,03,19,6.00
2010,01,23,03,20,6.00
2010,01,23,03,21,6.10
2010,01,23,03,22,6.10
2010,01,23,03,23,6.10
2010,01,23,03,24,6.20
2010,01,23,03,25,6.10
2010,01,23,03,26,6.10
2010,01,23,03,27,6.10
2010,01,23,03,28,6.10
2010,01,23,03,29,6.10
2010,01,23,03,30,6.10
2010,01,23,03,31,6.10
2010,01,23,03,32,6.10
2010,01,23,03,33,6.10
2010,01,23,03,34,6.10
2010,01,23,03,35,6.10
2010,01,23,03,36,6.10
2010,01,23,03,37,6.10
2010,01,23,03,38,6.00
2010,01,23,03,39,5.90
2010,01,23,03,40,5.80
2010,01,23,03,41,5.70
2010,01,23,03,42,5.60
2010,01,23,03,43,5.60
2010,01,23,03,44,5.50
2010,01,23,03,45,5.50
2010,01,23,03,46,5.40
2010,01,23,03,47,5.40
2010,01,23,03,48,5.30
2010,01,23,03,49,5.30
2010,01,23,03,50,5.30
2010,01,23,03,51,5.30
2010,01,23,03,52,5.30
2010,01,23,03,53,5.30
2010,01,23,03,54,5.30
2010,01,23,03,55,5.30
2010,01,23,03,56,5.30
2010,01,23,03,57,5.20
2010,01,23,03,58,5.20
2010,01,23,03,59,5.20
2010,01,23,04,00,5.20
2010,01,23,04,01,5.20
2010,01,23,04,02,5.20
2010,01,23,04,03,5.20
2010,01,23,04,04,5.20
2010,01,23,04,05,5.20
2010,01,23,04,06,5.30
2010,01,23,04,07,5.30
2010,01,23,04,08,5.20
2010,01,23,04,09,5.20
2010,01,23,04,10,5.20
2010,01,23,04,11,5.20
2010,01,23,04,12,5.10
2010,01,23,04,13,5.10
2010,01,23,04,14,5.10
2010,01,23,04,15,5.10
2010,01,23,04,16,5.10
2010,01,23,04,17,5.10
2010,01,23,04,18,5.10
2010,01,23,04,19,5.10
2010,01,23,04,20,5.10
2010,01,23,04,21,5.10
2010,01,23,04,22,5.10
2010,01,23,04,23,5.10
2010,01,23,04,24,5.10
2010,01,23,04,25,5.10
2010,01,23,04,26,5.10
2010,01,23,04,27,5.10
2010,01,23,04,28,5.10
2010,01,23,04,29,5.10
2010,01,23,04,30,5.10
2010,01,23,04,31,5.10
2010,01,23,08,46,5.40
2010,01,23,08,47,5.40
2010,01,23,08,48,5.40
2010,01,23,08,49,5.40
2010,01,23,08,50,5.40
2010,01,23,08,51,5.40
2010,01,23,08,52,5.40
2010,01,23,08,53,5.40
2010,01,23,08,54,5.40
2010,01,23,08,55,5.50
2010,01,23,08,56,5.50
2010,01,23,08,57,5.50
2010,01,23,08,58,5.50
2010,01,23,08,59,5.50
2010,01,23,09,00,5.60
2010,01,23,09,01,5.60
2010,01,23,09,02,5.60
2010,01,23,09,03,5.70
2010,01,23,09,04,5.70
2010,01,23,09,05,5.70
2010,01,23,09,06,5.80
2010,01,23,09,07,5.90
2010,01,23,09,08,6.00
2010,01,23,09,09,6.00
2010,01,23,09,10,6.10
2010,01,23,09,11,6.20
2010,01,23,09,12,6.30
2010,01,23,09,13,6.40
2010,01,23,09,14,6.50
2010,01,23,09,15,6.60
2010,01,23,09,16,6.70
2010,01,23,09,17,6.70
2010,01,23,09,18,6.80
2010,01,23,09,19,6.80
2010,01,23,09,20,6.80
2010,01,23,09,21,6.80
2010,01,23,09,22,6.90
2010,01,23,09,23,6.90
2010,01,23,09,24,6.90
2010,01,23,09,25,7.00
2010,01,23,09,26,7.00
2010,01,23,09,27,6.90
2010,01,23,09,28,6.90
2010,01,23,09,29,6.80
2010,01,23,09,30,6.80
2010,01,23,09,31,6.80
2010,01,23,09,32,6.80
2010,01,23,09,33,6.80
2010,01,23,09,34,6.80
2010,01,23,09,35,6.80
2010,01,23,09,36,6.80
2010,01,23,09,37,6.80
2010,01,23,09,38,6.80
2010,01,23,09,39,6.80
2010,01,23,09,40,6.90
2010,01,23,09,41,7.00
2010,01,23,09,42,7.00
2010,01,23,09,43,7.00
2010,01,23,09,44,7.00
2010,01,23,09,45,7.00
2010,01,23,09,46,7.00
2010,01,23,09,47,7.00
2010,01,23,09,48,7.10
2010,01,23,09,49,7.10
2010,01,23,09,50,7.10
2010,01,23,09,51,7.20
2010,01,23,09,52,7.20
2010,01,23,09,53,7.30
2010,01,23,09,54,7.30
2010,01,23,09,55,7.30
2010,01,23,09,56,7.30
2010,01,23,09,57,7.30
2010,01,23,09,58,7.30
2010,01,23,09,59,7.30
2010,01,23,10,00,7.30
2010,01,23,10,01,7.30
2010,01,23,10,02,7.30
2010,01,23,10,03,7.40
2010,01,23,10,04,7.40
2010,01,23,10,05,7.40
2010,01,23,10,06,7.40
2010,01,23,10,07,7.40
2010,01,23,10,08,7.40
2010,01,23,10,09,7.50
2010,01,23,10,10,7.50
2010,01,23,10,11,7.50
2010,01,23,10,12,7.50
2010,01,23,10,13,7.50
2010,01,23,10,14,7.60
2010,01,23,10,15,7.60
2010,01,23,10,16,7.70
2010,01,23,10,17,7.80
2010,01,23,10,18,7.80
2010,01,23,10,19,7.80
2010,01,23,10,20,7.80
2010,01,23,10,21,7.80
2010,01,23,10,22,7.90
2010,01,23,10,23,7.90
2010,01,23,10,24,8.00
2010,01,23,10,25,8.00
2010,01,23,10,26,8.00
2010,01,23,10,27,8.00
2010,01,23,10,28,8.00
2010,01,23,10,29,8.00
2010,01,23,10,30,8.00
2010,01,23,10,31,8.00
2010,01,23,10,32,8.00
2010,01,23,10,33,8.00
2010,01,23,10,34,8.00
2010,01,23,10,35,8.00
2010,01,23,10,36,8.00
2010,01,23,10,37,8.00
2010,01,23,10,38,8.00
2010,01,23,10,39,8.00
2010,01,23,10,40,8.00
2010,01,23,10,41,8.00
2010,01,23,10,42,7.90
2010,01,23,10,43,8.00
2010,01,23,10,44,8.00
2010,01,23,10,45,8.00
2010,01,23,10,46,8.00
2010,01,23,10,47,8.00
2010,01,23,10,48,8.00
2010,01,23,10,49,8.00
2010,01,23,10,50,8.10
2010,01,23,10,51,8.10
2010,01,23,10,52,8.20
2010,01,23,10,53,8.20
2010,01,23,10,54,8.20
2010,01,23,10,55,8.20
2010,01,23,10,56,8.20
2010,01,23,10,57,8.20
2010,01,23,10,58,8.20
2010,01,23,10,59,8.20
2010,01,23,11,00,8.20
2010,01,23,11,01,8.20
2010,01,23,11,02,8.20
2010,01,23,11,03,8.20
2010,01,23,11,04,8.20
2010,01,23,11,05,8.20
2010,01,23,11,06,8.10
2010,01,23,11,07,8.00
2010,01,23,11,08,8.00
2010,01,23,11,09,7.90
2010,01,23,11,10,7.90
2010,01,23,11,11,7.90
2010,01,23,11,12,7.90
2010,01,23,11,13,7.90
2010,01,23,11,14,7.90
2010,01,23,11,15,7.90
2010,01,23,11,16,7.90
2010,01,23,11,17,7.90
2010,01,23,11,18,7.90
2010,01,23,11,19,7.90
2010,01,23,11,20,7.90
2010,01,23,11,21,7.90
2010,01,23,11,22,7.90
2010,01,23,11,23,7.90
2010,01,23,11,24,7.80
2010,01,23,11,25,7.80
2010,01,23,11,26,7.80
2010,01,23,11,27,7.80
2010,01,23,11,28,7.80
2010,01,23,11,29,7.90
2010,01,23,11,30,7.90
2010,01,23,11,31,7.80
2010,01,23,11,32,7.80
2010,01,23,11,33,7.80
2010,01,23,11,34,7.70
2010,01,23,11,35,7.70
2010,01,23,11,36,7.70
2010,01,23,11,37,7.60
2010,01,23,11,38,7.70
2010,01,23,11,39,7.70
2010,01,23,11,40,7.70
2010,01,23,11,41,7.70
2010,01,23,11,42,7.70
2010,01,23,11,43,7.70
2010,01,23,11,44,7.60
2010,01,23,11,45,7.50
2010,01,23,11,46,7.40
2010,01,23,11,47,7.30
2010,01,23,11,48,7.30
2010,01,23,11,49,7.30
2010,01,23,11,50,7.30
2010,01,23,11,51,7.30
2010,01,23,11,52,7.30
2010,01,23,11,53,7.30
2010,01,23,11,54,7.30
2010,01,23,11,55,7.30
2010,01,23,11,56,7.30
2010,01,23,11,57,7.20
2010,01,23,11,58,7.20
2010,01,23,11,59,7.20
2010,01,23,12,00,7.30
2010,01,23,12,01,7.30
2010,01,23,12,02,7.30
2010,01,23,12,03,7.40
2010,01,23,12,04,7.40
2010,01,23,12,05,7.50
2010,01,23,12,06,7.50
2010,01,23,12,07,7.60
2010,01,23,12,08,7.60
2010,01,23,12,09,7.70
2010,01,23,12,10,7.70
2010,01,23,12,11,7.70
2010,01,23,12,12,7.70
2010,01,23,12,13,7.70
2010,01,23,12,14,7.70
2010,01,23,12,15,7.70
2010,01,23,12,16,7.70
2010,01,23,12,17,7.80
2010,01,23,12,18,7.80
2010,01,23,12,19,7.80
2010,01,23,12,20,7.80
2010,01,23,12,21,7.80
2010,01,23,12,22,7.80
2010,01,23,12,23,7.80
2010,01,23,12,24,7.80
2010,01,23,12,25,7.80
2010,01,23,12,26,7.80
2010,01,23,12,27,7.80
2010,01,23,12,28,7.80
2010,01,23,12,29,7.80
2010,01,23,12,30,7.80
2010,01,23,12,31,7.80
2010,01,23,12,32,7.80
2010,01,23,12,33,7.80
2010,01,23,12,34,7.90
2010,01,23,12,35,7.90
2010,01,23,12,36,7.90
2010,01,23,12,37,7.80
2010,01,23,12,38,7.80
2010,01,23,12,39,7.80
2010,01,23,12,40,7.80
2010,01,23,12,41,7.80
2010,01,23,12,42,7.80
2010,01,23,12,43,7.80
2010,01,23,12,44,7.80
2010,01,23,12,45,7.80
2010,01,23,12,46,7.80
2010,01,23,12,47,7.80
2010,01,23,12,48,7.80
2010,01,23,12,49,7.80
2010,01,23,12,50,7.80
2010,01,23,12,51,7.80
2010,01,23,12,52,7.80
2010,01,23,12,53,7.80
2010,01,23,12,54,7.80
2010,01,23,12,55,7.90
2010,01,23,12,56,7.90
2010,01,23,12,57,8.00
2010,01,23,12,58,8.00
2010,01,23,12,59,8.10
2010,01,23,13,00,8.10
2010,01,23,13,01,8.10
2010,01,23,13,02,8.10
2010,01,23,13,03,8.10
2010,01,23,13,04,8.10
2010,01,23,13,05,8.10
2010,01,23,13,06,8.10
2010,01,23,13,07,8.10
2010,01,23,13,08,8.10
2010,01,23,13,09,8.10
2010,01,23,13,10,8.20
2010,01,23,13,11,8.20
2010,01,23,13,12,8.20
2010,01,23,13,13,8.20
2010,01,23,13,14,8.30
2010,01,23,13,15,8.30
2010,01,23,13,16,8.30
2010,01,23,13,17,8.30
2010,01,23,13,18,8.30
2010,01,23,13,19,8.40
2010,01,23,13,20,8.40
2010,01,23,13,21,8.40
2010,01,23,13,22,8.40
2010,01,23,13,23,8.40
2010,01,23,13,24,8.40
2010,01,23,13,25,8.50
2010,01,23,13,26,8.40
2010,01,23,13,27,8.40
2010,01,23,13,28,8.40
2010,01,23,13,29,8.50
2010,01,23,13,30,8.50
2010,01,23,13,31,8.60
2010,01,23,13,32,8.70
2010,01,23,13,33,8.70
2010,01,23,13,34,8.70
2010,01,23,13,35,8.80
2010,01,23,13,36,8.80
2010,01,23,13,37,8.90
2010,01,23,13,38,8.90
2010,01,23,13,39,9.00
2010,01,23,13,40,9.00
2010,01,23,13,41,9.00
2010,01,23,13,42,9.00
2010,01,23,13,43,9.00
2010,01,23,13,44,9.00
2010,01,23,13,45,9.10
2010,01,23,13,46,9.10
2010,01,23,13,47,9.20
2010,01,23,13,48,9.20
2010,01,23,13,49,9.20
2010,01,23,13,50,9.20
2010,01,23,13,51,9.20
2010,01,23,13,52,9.30
2010,01,23,13,53,9.30
2010,01,23,13,54,9.30
2010,01,23,13,55,9.30
2010,01,23,13,56,9.30
2010,01,23,13,57,9.40
2010,01,23,13,58,9.40
2010,01,23,13,59,9.40
2010,01,23,14,00,9.50
2010,01,23,14,01,9.50
2010,01,23,14,02,9.60
2010,01,23,14,03,9.60
2010,01,23,14,04,9.60
2010,01,23,14,05,9.70
2010,01,23,14,06,9.60
2010,01,23,14,07,9.50
2010,01,23,14,08,9.50
2010,01,23,14,09,9.50
2010,01,23,14,10,9.50
2010,01,23,14,11,9.50
2010,01,23,14,12,9.50
2010,01,23,14,13,9.50
2010,01,23,14,14,9.50
2010,01,23,14,15,9.50
2010,01,23,14,16,9.60
2010,01,23,14,17,9.60
2010,01,23,14,18,9.60
2010,01,23,14,19,9.60
2010,01,23,14,20,9.50
2010,01,23,14,21,9.40
2010,01,23,14,22,9.40
2010,01,23,14,23,9.30
2010,01,23,14,24,9.20
2010,01,23,14,25,9.20
2010,01,23,14,26,9.20
2010,01,23,14,27,9.10
2010,01,23,14,28,9.10
2010,01,23,14,29,9.10
2010,01,23,14,30,9.10
2010,01,23,14,31,9.10
2010,01,23,14,32,9.20
2010,01,23,14,33,9.20
2010,01,23,14,34,9.30
2010,01,23,14,35,9.40
2010,01,23,14,36,9.40
2010,01,23,14,37,9.40
2010,01,23,14,38,9.40
2010,01,23,14,39,9.40
2010,01,23,14,40,9.20
2010,01,23,14,41,9.20
2010,01,23,14,42,9.10
2010,01,23,14,43,9.10
2010,01,23,14,44,9.10
2010,01,23,14,45,9.10
2010,01,23,14,46,9.10
2010,01,23,14,47,9.10
2010,01,23,14,48,9.10
2010,01,23,14,49,9.20
2010,01,23,14,50,9.20
2010,01,23,14,51,9.20
2010,01,23,14,52,9.20
2010,01,23,14,53,9.20
2010,01,23,14,54,9.20
2010,01,23,14,55,9.10
2010,01,23,14,56,9.10
2010,01,23,14,57,9.10
2010,01,23,14,58,9.10
2010,01,23,14,59,9.00
2010,01,23,15,00,9.00
2010,01,23,15,01,9.00
2010,01,23,15,02,9.00
2010,01,23,15,03,9.10
2010,01,23,15,04,9.10
2010,01,23,15,05,9.10
2010,01,23,15,06,9.20
2010,01,23,15,07,9.10
2010,01,23,15,08,9.10
2010,01,23,15,09,9.00
2010,01,23,15,10,9.00
2010,01,23,15,11,9.00
2010,01,23,15,12,8.90
2010,01,23,15,13,8.90
2010,01,23,15,14,8.90
2010,01,23,15,15,8.90
2010,01,23,15,16,9.00
2010,01,23,15,17,9.00
2010,01,23,15,18,9.00
2010,01,23,15,19,9.00
2010,01,23,15,20,9.00
2010,01,23,15,21,9.00
2010,01,23,15,22,9.00
2010,01,23,15,23,8.90
2010,01,23,15,24,8.90
2010,01,23,15,25,8.90
2010,01,23,15,26,8.90
2010,01,23,15,27,8.90
2010,01,23,15,28,9.00
2010,01,23,15,29,9.00
2010,01,23,15,30,9.00
2010,01,23,15,31,9.00
2010,01,23,15,32,9.00
2010,01,23,15,33,9.00
2010,01,23,15,34,9.00
2010,01,23,15,35,9.10
2010,01,23,15,36,9.10
2010,01,23,15,37,9.10
2010,01,23,15,38,9.10
2010,01,23,15,39,9.10
2010,01,23,15,40,9.10
2010,01,23,15,41,9.10
2010,01,23,15,42,9.10
2010,01,23,15,43,9.10
2010,01,23,15,44,9.10
2010,01,23,15,45,9.20
2010,01,23,15,46,9.20
2010,01,23,15,47,9.20
2010,01,23,15,48,9.20
2010,01,23,15,49,9.10
2010,01,23,15,50,9.10
2010,01,23,15,51,9.10
2010,01,23,15,52,9.10
2010,01,23,15,53,9.10
2010,01,23,15,54,9.10
2010,01,23,15,55,9.10
2010,01,23,15,56,9.10
2010,01,23,15,57,9.20
2010,01,23,15,58,9.20
2010,01,23,15,59,9.20
2010,01,23,16,00,9.20
2010,01,23,16,01,9.10
2010,01,23,16,02,9.10
2010,01,23,16,03,9.10
2010,01,23,16,04,9.10
2010,01,23,16,05,9.00
2010,01,23,16,06,9.00
2010,01,23,16,07,9.00
2010,01,23,16,08,9.00
2010,01,23,16,09,8.90
2010,01,23,16,10,8.90
2010,01,23,16,11,8.90
2010,01,23,16,12,8.90
2010,01,23,16,13,8.80
2010,01,23,16,14,8.80
2010,01,23,16,15,8.80
2010,01,23,16,16,8.70
2010,01,23,16,17,8.70
2010,01,23,16,18,8.70
2010,01,23,16,19,8.70
2010,01,23,16,20,8.70
2010,01,23,16,21,8.70
2010,01,23,16,22,8.70
2010,01,23,16,23,8.70
2010,01,23,16,24,8.60
2010,01,23,16,25,8.60
2010,01,23,16,26,8.60
2010,01,23,16,27,8.60
2010,01,23,16,28,8.60
2010,01,23,16,29,8.50
2010,01,23,16,30,8.50
2010,01,23,16,31,8.50
2010,01,23,16,32,8.50
2010,01,23,16,33,8.40
2010,01,23,16,34,8.40
2010,01,23,16,35,8.30
2010,01,23,16,36,8.30
2010,01,23,16,37,8.30
2010,01,23,16,38,8.20
2010,01,23,16,39,8.20
2010,01,23,16,40,8.20
2010,01,23,16,41,8.20
2010,01,23,16,42,8.20
2010,01,23,16,43,8.20
2010,01,23,16,44,8.20
2010,01,23,16,45,8.20
2010,01,23,16,46,8.20
2010,01,23,16,47,8.20
2010,01,23,16,48,8.20
2010,01,23,16,49,8.10
2010,01,23,16,50,8.10
2010,01,23,16,51,8.10
2010,01,23,16,52,8.10
2010,01,23,16,53,8.00
2010,01,23,16,54,8.00
2010,01,23,16,55,8.00
2010,01,23,16,56,8.00
2010,01,23,16,57,8.00
2010,01,23,16,58,7.90
2010,01,23,16,59,7.90
2010,01,23,17,00,7.90
2010,01,23,17,01,7.90
2010,01,23,17,02,7.90
2010,01,23,17,03,7.90
2010,01,23,17,04,7.80
2010,01,23,17,05,7.80
2010,01,23,17,06,7.80
2010,01,23,17,07,7.80
2010,01,23,17,08,7.80
2010,01,23,17,09,7.80
2010,01,23,17,10,7.80
2010,01,23,17,11,7.80
2010,01,23,17,12,7.80
2010,01,23,17,13,7.80
2010,01,23,17,14,7.80
2010,01,23,17,15,7.80
2010,01,23,17,16,7.70
2010,01,23,17,17,7.70
2010,01,23,17,18,7.70
2010,01,23,17,19,7.70
2010,01,23,17,20,7.70
2010,01,23,17,21,7.70
2010,01,23,17,22,7.70
2010,01,23,17,23,7.70
2010,01,23,17,24,7.70
2010,01,23,17,25,7.60
2010,01,23,17,26,7.60
2010,01,23,17,27,7.60
2010,01,23,17,28,7.60
2010,01,23,17,29,7.60
2010,01,23,17,30,7.60
2010,01,23,17,31,7.60
2010,01,23,17,32,7.60
2010,01,23,17,33,7.60
2010,01,23,17,34,7.60
2010,01,23,17,35,7.60
2010,01,23,17,36,7.60
2010,01,23,17,37,7.60
2010,01,23,17,38,7.50
2010,01,23,17,39,7.60
2010,01,23,17,40,7.50
2010,01,23,17,41,7.50
2010,01,23,17,42,7.50
2010,01,23,17,43,7.50
2010,01,23,17,44,7.50
2010,01,23,17,45,7.50
2010,01,23,17,46,7.50
2010,01,23,17,47,7.50
2010,01,23,17,48,7.50
2010,01,23,17,49,7.50
2010,01,23,17,50,7.40
2010,01,23,17,51,7.40
2010,01,23,17,52,7.40
2010,01,23,17,53,7.40
2010,01,23,17,54,7.40
2010,01,23,17,55,7.40
2010,01,23,17,56,7.30
2010,01,23,17,57,7.30
2010,01,23,17,58,7.30
2010,01,23,17,59,7.30
2010,01,23,18,00,7.30
2010,01,23,18,01,7.30
2010,01,23,18,02,7.30
2010,01,23,18,03,7.30
2010,01,23,18,04,7.30
2010,01,23,18,05,7.30
2010,01,23,18,06,7.30
2010,01,23,18,07,7.30
2010,01,23,18,08,7.30
2010,01,23,18,09,7.30
2010,01,23,18,10,7.30
2010,01,23,18,11,7.30
2010,01,23,18,12,7.30
2010,01,23,18,13,7.30
2010,01,23,18,14,7.20
2010,01,23,18,15,7.20
2010,01,23,18,16,7.20
2010,01,23,18,17,7.20
2010,01,23,18,18,7.20
2010,01,23,18,19,7.20
2010,01,23,18,20,7.20
2010,01,23,18,21,7.20
2010,01,23,18,22,7.20
2010,01,23,18,23,7.20
2010,01,23,18,24,7.20
2010,01,23,18,25,7.20
2010,01,23,18,26,7.20
2010,01,23,18,27,7.20
2010,01,23,18,28,7.20
2010,01,23,18,29,7.20
2010,01,23,18,30,7.20
2010,01,23,18,31,7.20
2010,01,23,18,32,7.20
2010,01,23,18,33,7.20
2010,01,23,18,34,7.10
2010,01,23,18,35,7.10
2010,01,23,18,36,7.20
2010,01,23,18,37,7.20
2010,01,23,18,38,7.20
2010,01,23,18,39,7.20
2010,01,23,18,40,7.20
2010,01,23,18,41,7.20
2010,01,23,18,42,7.20
2010,01,23,18,43,7.20
2010,01,23,18,44,7.20
2010,01,23,18,45,7.20
2010,01,23,18,46,7.30
2010,01,23,18,47,7.30
2010,01,23,18,48,7.30
2010,01,23,18,49,7.30
2010,01,23,18,50,7.30
2010,01,23,18,51,7.30
2010,01,23,18,52,7.30
2010,01,23,18,53,7.30
2010,01,23,18,54,7.30
2010,01,23,18,55,7.30
2010,01,23,18,56,7.30
2010,01,23,18,57,7.30
2010,01,23,18,58,7.30
2010,01,23,18,59,7.30
2010,01,23,19,00,7.30
2010,01,23,19,01,7.30
2010,01,23,19,02,7.30
2010,01,23,19,03,7.30
2010,01,23,19,04,7.30
2010,01,23,19,05,7.30
2010,01,23,19,06,7.30
2010,01,23,19,07,7.30
2010,01,23,19,08,7.30
2010,01,23,19,09,7.30
2010,01,23,19,10,7.30
2010,01,23,19,11,7.30
2010,01,23,19,12,7.30
2010,01,23,19,13,7.30
2010,01,23,19,14,7.30
2010,01,23,19,15,7.30
2010,01,23,19,16,7.30
2010,01,23,19,17,7.30
2010,01,23,19,18,7.30
2010,01,23,19,19,7.30
2010,01,23,19,20,7.30
2010,01,23,19,21,7.30
2010,01,23,19,22,7.30
2010,01,23,19,23,7.30
2010,01,23,19,24,7.30
2010,01,23,19,25,7.30
2010,01,23,19,26,7.30
2010,01,23,19,27,7.30
2010,01,23,19,28,7.20
2010,01,23,19,29,7.20
2010,01,23,19,30,7.20
2010,01,23,19,31,7.20
2010,01,23,19,32,7.20
2010,01,23,19,33,7.20
2010,01,23,19,34,7.20
2010,01,23,19,35,7.20
2010,01,23,19,36,7.20
2010,01,23,19,37,7.20
2010,01,23,19,38,7.10
2010,01,23,19,39,7.10
2010,01,23,19,40,7.10
2010,01,23,19,41,7.10
2010,01,23,19,42,7.10
2010,01,23,19,43,7.10
2010,01,23,19,44,7.10
2010,01,23,19,45,7.10
2010,01,23,19,46,7.00
2010,01,23,19,47,7.00
2010,01,23,19,48,7.00
2010,01,23,19,49,7.00
2010,01,23,19,50,7.00
2010,01,23,19,51,7.00
2010,01,23,19,52,7.00
2010,01,23,19,53,7.00
2010,01,23,19,54,7.00
2010,01,23,19,55,7.00
2010,01,23,19,56,6.90
2010,01,23,19,57,6.90
2010,01,23,19,58,6.90
2010,01,23,19,59,6.90
2010,01,23,20,00,6.80
2010,01,23,20,01,6.80
2010,01,23,20,02,6.80
2010,01,23,20,03,6.80
2010,01,23,20,04,6.80
2010,01,23,20,05,6.80
2010,01,23,20,06,6.80
2010,01,23,20,07,6.80
2010,01,23,20,08,6.80
2010,01,23,20,09,6.80
2010,01,23,20,10,6.80
2010,01,23,20,11,6.80
2010,01,23,20,12,6.80
2010,01,23,20,13,6.80
2010,01,23,20,14,6.80
2010,01,23,20,15,6.80
2010,01,23,20,16,6.80
2010,01,23,20,17,6.80
2010,01,23,20,18,6.80
2010,01,23,20,19,6.80
2010,01,23,20,20,6.80
2010,01,23,20,21,6.80
2010,01,23,20,22,6.90
2010,01,23,20,23,6.90
2010,01,23,20,24,6.90
2010,01,23,20,25,6.90
2010,01,23,20,26,6.90
2010,01,23,20,27,6.80
2010,01,23,20,28,6.80
2010,01,23,20,29,6.80
2010,01,23,20,30,6.80
2010,01,23,20,31,6.80
2010,01,23,20,32,6.80
2010,01,23,20,33,6.80
2010,01,23,20,34,6.80
2010,01,23,20,35,6.80
2010,01,23,20,36,6.80
2010,01,23,20,37,6.70
2010,01,23,20,38,6.70
2010,01,23,20,39,6.70
2010,01,23,20,40,6.70
2010,01,23,20,41,6.70
2010,01,23,20,42,6.60
2010,01,23,20,43,6.60
2010,01,23,20,44,6.60
2010,01,23,20,45,6.60
2010,01,23,20,46,6.60
2010,01,23,20,47,6.60
2010,01,23,20,48,6.60
2010,01,23,20,49,6.60
2010,01,23,20,50,6.60
2010,01,23,20,51,6.60
2010,01,23,20,52,6.60
2010,01,23,20,53,6.60
2010,01,23,20,54,6.60
2010,01,23,20,55,6.60
2010,01,23,20,56,6.60
2010,01,23,20,57,6.70
2010,01,23,20,58,6.60
2010,01,23,20,59,6.60
2010,01,23,21,00,6.60
2010,01,23,21,01,6.60
2010,01,23,21,02,6.60
2010,01,23,21,03,6.60
2010,01,23,21,04,6.60
2010,01,23,21,05,6.60
2010,01,23,21,06,6.60
2010,01,23,21,07,6.60
2010,01,23,21,08,6.60
2010,01,23,21,09,6.60
2010,01,23,21,10,6.60
2010,01,23,21,11,6.60
2010,01,23,21,12,6.60
2010,01,23,21,13,6.50
2010,01,23,21,14,6.40
2010,01,23,21,15,6.40
2010,01,23,21,16,6.40
2010,01,23,21,17,6.40
2010,01,23,21,18,6.40
2010,01,23,21,19,6.40
2010,01,23,21,20,6.40
2010,01,23,21,21,6.40
2010,01,23,21,22,6.40
2010,01,23,21,23,6.40
2010,01,23,21,24,6.40
2010,01,23,21,25,6.40
2010,01,23,21,26,6.40
2010,01,23,21,27,6.40
2010,01,23,21,28,6.40
2010,01,23,21,29,6.40
2010,01,23,21,30,6.40
2010,01,23,21,31,6.40
2010,01,23,21,32,6.40
2010,01,23,21,33,6.40
2010,01,23,21,34,6.40
2010,01,23,21,35,6.40
2010,01,23,21,36,6.40
2010,01,23,21,37,6.40
2010,01,23,21,38,6.40
2010,01,23,21,39,6.40
2010,01,23,21,40,6.40
2010,01,23,21,41,6.40
2010,01,23,21,42,6.40
2010,01,23,21,43,6.40
2010,01,23,21,44,6.30
2010,01,23,21,45,6.30
2010,01,23,21,46,6.30
2010,01,23,21,47,6.30
2010,01,23,21,48,6.30
2010,01,23,21,49,6.30
2010,01,23,21,50,6.40
2010,01,23,21,51,6.40
2010,01,23,21,52,6.30
2010,01,23,21,53,6.30
2010,01,23,21,54,6.40
2010,01,23,21,55,6.40
2010,01,23,21,56,6.40
2010,01,23,21,57,6.40
2010,01,23,21,58,6.40
2010,01,23,21,59,6.40
2010,01,23,22,00,6.40
2010,01,23,22,01,6.40
2010,01,23,22,02,6.40
2010,01,23,22,03,6.40
2010,01,23,22,04,6.40
2010,01,23,22,05,6.40
2010,01,23,22,06,6.40
2010,01,23,22,07,6.40
2010,01,23,22,08,6.40
2010,01,23,22,09,6.40
2010,01,23,22,10,6.40
2010,01,23,22,11,6.40
2010,01,23,22,12,6.40
2010,01,23,22,13,6.40
2010,01,23,22,14,6.40
2010,01,23,22,15,6.40
2010,01,23,22,16,6.40
2010,01,23,22,17,6.40
2010,01,23,22,18,6.40
2010,01,23,22,19,6.40
2010,01,23,22,20,6.40